Theta_e
287 288 289 290 292 292 293 297 299 299 299 300 300 301 303 304 304 300 296 296 294 294 294 294 293 293 293 293 293 293 293 293 292 290 290 289 288 288 287 288 288 289 288
286 287 288 289 290 291 292 292 294 298 298 298 299 299 299 300 302 299 295 295 295 294 294 293 293 292 292 292 292 292 292 292 291 289 289 288 287 287 287 287 288 287 286
286 286 286 287 288 290 290 291 292 294 298 298 298 298 298 298 298 300 299 295 295 294 294 293 293 292 291 291 291 291 291 290 290 289 288 288 287 286 287 287 287 287 286
285 285 286 286 287 288 288 290 291 291 295 298 298 297 297 297 296 296 296 296 294 294 293 293 292 292 291 291 291 291 290 289 289 288 287 287 286 285 287 287 287 287 286
285 285 285 286 286 286 287 288 290 290 292 296 296 296 296 296 296 295 294 295 294 293 293 293 292 291 291 291 291 290 289 288 288 287 287 286 285 284 286 287 287 286 286
286 285 285 285 285 286 286 286 288 289 290 293 295 294 294 295 296 295 294 294 293 293 293 292 291 291 290 290 290 290 289 288 287 287 286 286 285 284 285 286 287 286 288
286 285 285 284 285 285 285 285 286 287 288 289 291 293 293 293 293 294 294 293 293 293 293 292 291 290 290 290 289 289 288 287 287 287 286 286 285 284 284 285 286 287 286
286 285 285 284 284 284 285 285 285 285 286 287 289 291 292 293 292 292 293 293 292 293 293 293 292 291 290 289 288 287 287 287 286 286 287 287 286 285 284 285 286 286 286
286 285 285 285 284 284 284 284 285 285 285 286 287 288 290 292 292 291 291 291 292 292 293 293 291 291 290 288 287 286 286 286 286 285 286 285 285 284 283 283 285 286 286
286 285 285 285 284 284 283 283 283 284 284 285 285 288 289 290 291 291 290 291 291 291 291 292 291 291 290 287 287 286 285 285 285 284 283 283 282 282 284 283 284 286 286
286 285 285 285 284 283 283 283 283 283 283 284 285 287 288 289 290 291 290 290 291 291 291 291 290 290 290 288 287 287 287 285 284 284 283 282 282 283 284 284 283 284 285
285 285 285 285 285 284 283 283 282 282 282 283 284 286 287 289 289 290 290 290 290 291 291 292 291 291 290 288 287 287 286 285 284 283 282 281 282 282 283 283 284 284 284
284 285 285 285 285 284 282 282 281 281 281 282 284 286 287 288 289 289 290 290 290 290 291 292 292 291 289 288 287 286 286 285 284 282 281 282 282 282 281 281 283 281 281
283 284 284 284 284 283 282 281 280 280 280 281 283 286 287 287 288 288 288 289 290 289 290 290 291 290 289 288 287 285 285 285 285 284 283 284 281 280 280 280 281 281 281
282 283 283 283 283 282 281 281 280 280 280 280 282 284 287 288 287 288 289 288 290 289 288 288 286 287 287 286 286 285 285 284 284 284 284 283 281 280 280 279 280 281 280
278 280 281 282 281 280 280 279 280 280 280 280 281 282 283 286 288 288 288 288 289 289 286 286 286 286 286 285 285 284 285 284 284 284 284 284 281 280 280 280 279 281 280
273 275 277 278 278 278 277 276 276 279 278 279 280 282 284 286 287 288 288 288 289 288 287 285 286 285 286 285 285 283 284 284 284 284 284 284 282 280 280 280 279 280 279
271 272 272 273 275 275 275 275 275 274 275 276 279 281 284 286 288 289 288 288 288 287 286 285 285 285 285 284 285 284 283 284 284 284 284 285 283 281 280 281 280 279 280
268 268 270 271 272 272 272 272 272 273 273 275 277 279 282 286 288 289 289 288 288 288 286 285 285 285 284 284 284 284 284 285 284 284 284 284 284 281 281 281 281 281 281
266 267 268 268 269 269 270 270 271 271 272 274 276 278 281 286 288 289 288 288 288 289 286 285 285 285 285 285 284 284 283 284 284 284 284 284 284 282 282 282 282 282 282
264 265 267 267 267 267 268 269 270 271 272 274 276 278 281 286 288 288 289 288 288 288 286 285 285 284 284 284 284 284 284 284 284 284 284 283 284 283 282 282 282 282 283
264 264 265 265 266 267 267 268 270 271 273 274 277 279 282 286 288 288 289 288 288 288 287 286 285 285 285 285 285 284 284 284 284 284 284 283 283 283 282 281 281 281 281
264 264 264 265 266 267 267 269 270 273 274 276 278 280 283 286 288 288 288 288 288 288 288 287 285 285 284 284 285 285 285 284 284 284 284 283 283 282 282 281 281 281 280
266 266 265 266 267 268 269 271 272 273 274 275 277 279 282 287 288 288 288 288 288 287 288 287 286 285 285 285 284 284 284 285 285 285 285 284 283 285 282 281 281 280 280
267 267 268 269 269 270 271 271 271 272 272 273 274 276 279 281 284 287 288 287 287 286 287 286 286 286 286 286 284 284 284 285 285 284 284 284 285 288 282 281 281 280 280
267 267 268 268 268 268 268 268 268 269 269 270 271 272 274 275 277 280 282 284 285 286 286 286 286 286 286 285 285 287 290 290 287 284 283 285 287 282 281 281 280 280 279
Wind_Speed
20 20 20 20 19 16 12 8 6 7 9 11 13 16 20 21 19 20 19 15 18 16 14 14 13 12 12 11 10 11 13 10 8 5 13 11 6 8 10 10 12 12 11
17 18 18 18 19 19 17 14 9 6 8 9 11 15 17 23 22 23 22 21 20 17 17 15 15 14 13 11 10 9 10 11 8 17 16 13 9 11 10 8 9 13 15
13 16 17 18 18 19 19 17 14 10 7 9 12 16 17 20 24 26 23 23 20 20 19 18 17 16 16 14 11 10 8 9 13 16 14 14 10 12 12 9 6 9 14
13 14 16 18 18 17 17 18 16 14 9 9 11 14 16 18 21 24 26 24 23 22 21 19 17 18 18 16 14 11 10 10 12 21 15 15 10 12 12 11 8 5 6
11 13 14 16 17 16 18 18 17 15 11 9 10 13 15 17 19 23 27 26 24 24 22 17 18 17 16 15 16 14 13 13 17 15 13 11 8 11 10 11 9 6 3
11 12 14 14 15 17 18 19 18 18 15 10 9 11 15 18 19 20 24 27 25 25 23 19 18 16 16 15 14 13 12 15 16 11 10 11 10 8 12 11 11 7 3
15 12 12 14 15 16 19 19 20 19 18 15 10 10 13 16 18 20 21 26 27 27 24 21 20 20 19 17 14 13 12 12 12 13 11 11 12 12 15 12 10 8 5
19 17 14 14 15 15 17 19 21 21 20 18 14 11 13 15 16 19 20 23 27 25 24 22 24 23 23 21 18 16 14 13 9 10 10 9 6 10 13 12 11 9 8
22 20 16 15 16 15 16 18 20 22 21 19 16 14 13 16 15 17 21 23 26 26 24 22 25 24 24 22 21 19 16 13 8 7 9 8 8 9 11 14 13 11 4
24 20 17 16 16 17 17 18 19 20 22 20 19 17 15 15 15 15 23 25 27 28 26 24 26 26 25 25 24 23 20 19 16 13 12 11 10 8 10 12 13 9 6
25 19 20 18 18 17 18 19 20 21 22 21 18 16 17 15 17 16 22 28 29 30 29 29 29 26 23 26 26 25 20 20 19 17 17 14 10 7 8 9 12 9 7
25 22 22 22 20 19 18 19 20 20 21 22 17 18 17 17 17 18 21 33 28 30 32 32 31 29 26 25 24 24 19 17 22 21 19 16 12 12 10 10 10 8 7
27 26 24 23 22 20 19 20 20 20 20 20 15 16 16 19 19 20 19 30 31 29 30 29 29 29 28 25 24 24 24 23 24 25 23 19 16 14 13 11 11 9 9
29 27 25 24 23 22 21 21 20 22 21 18 16 17 16 17 21 21 22 26 31 31 29 25 25 29 31 29 26 24 27 26 27 27 24 19 17 18 15 11 12 10 9
23 26 26 25 24 24 23 23 23 25 22 22 22 19 18 17 22 24 24 26 30 31 29 23 23 29 28 29 28 30 29 27 26 24 23 23 22 20 16 13 11 11 7
22 24 26 26 27 24 24 27 27 27 26 25 27 28 29 25 25 26 25 26 31 34 27 24 24 28 29 30 28 32 31 30 28 27 24 25 24 22 19 16 13 10 13
26 28 27 27 27 25 25 23 24 29 24 26 25 27 30 33 29 29 29 26 33 35 30 27 27 29 30 32 30 29 35 35 31 30 27 26 24 22 22 18 16 13 14
27 29 29 25 26 26 25 23 23 23 22 27 29 24 25 27 29 34 30 27 30 40 33 31 30 30 30 32 32 32 34 35 33 31 29 27 25 25 25 21 18 17 17
29 27 27 29 29 29 26 24 23 23 23 27 29 25 24 26 25 30 34 33 28 32 32 30 33 34 34 35 34 35 38 38 37 34 31 29 28 27 25 22 19 18 18
30 31 29 28 26 26 24 23 21 22 22 24 25 26 24 22 23 27 32 32 30 29 32 31 31 34 37 40 38 37 37 37 38 36 34 32 29 28 25 23 20 20 19
27 28 28 27 26 25 25 24 24 22 23 25 27 27 27 27 24 26 28 30 31 28 32 32 31 33 35 37 38 39 39 38 37 37 35 34 31 30 25 23 21 19 19
27 25 25 26 26 25 24 25 24 24 25 26 28 27 29 30 28 26 28 30 32 31 32 36 31 34 39 43 44 42 40 40 40 38 36 34 32 29 26 24 23 22 22
26 25 25 25 25 25 24 25 25 24 25 26 27 27 26 27 27 26 28 31 34 34 37 37 34 34 36 39 41 41 42 42 41 38 36 35 33 29 28 27 26 26 26
22 24 24 23 22 22 22 22 23 26 27 27 28 29 30 26 26 26 28 31 34 32 36 35 34 34 37 37 37 37 36 35 35 35 34 34 34 28 29 29 29 29 27
17 20 21 21 21 21 22 22 21 20 19 19 20 21 21 23 26 30 32 34 33 32 34 34 33 32 33 35 34 33 32 31 29 30 33 33 32 30 32 32 31 30 28
2 3 4 5 5 6 7 8 8 8 8 9 11 13 15 19 22 27 31 34 35 34 32 31 30 30 29 29 29 29 30 34 32 29 31 30 29 32 33 33 33 31 30
Wind_Direction
19 19 20 22 22 20 14 3 314 273 260 252 254 252 245 239 243 240 242 244 242 241 238 231 227 220 211 210 204 203 205 199 134 129 157 162 141 151 118 97 77 68 66
12 14 15 17 16 14 12 2 340 307 263 253 251 253 249 244 237 234 232 230 233 235 234 225 221 212 205 201 195 193 188 192 161 147 162 162 159 153 133 119 93 69 64
6 7 9 11 13 12 6 2 353 321 291 257 245 246 248 246 239 233 232 236 235 236 233 227 219 211 204 196 194 191 186 183 176 158 148 167 156 161 151 138 113 88 73
350 359 3 7 5 7 3 359 355 343 306 273 251 248 251 252 247 240 233 230 228 232 228 224 220 214 209 194 190 188 180 169 164 152 143 159 161 165 166 164 163 115 77
331 343 354 359 360 358 360 359 355 351 329 286 259 250 251 249 245 238 231 227 227 227 223 219 218 215 211 202 189 182 182 166 158 151 149 158 161 163 171 180 178 175 105
303 324 337 346 353 356 357 357 354 351 346 307 273 263 256 251 246 243 236 228 224 223 220 212 210 207 201 198 193 191 198 185 176 168 170 166 163 169 165 169 173 172 165
288 303 319 329 339 348 353 354 355 350 341 335 300 273 264 261 255 247 239 232 226 222 220 212 204 201 196 190 189 191 190 193 200 195 185 174 167 178 165 165 168 171 144
276 289 299 312 321 334 341 347 349 347 341 324 318 292 277 265 263 252 242 232 229 224 222 218 209 198 195 190 183 179 183 180 189 201 197 183 174 170 166 167 160 152 140
260 274 284 296 307 319 329 335 340 339 337 330 305 306 284 274 262 250 232 226 225 223 221 219 214 205 198 188 182 175 176 175 174 180 174 172 176 181 173 166 163 155 139
253 264 275 280 294 306 315 323 327 331 327 327 312 298 298 280 267 251 225 226 221 220 216 215 215 213 204 193 191 178 173 178 178 175 154 147 162 164 170 169 170 168 149
251 257 266 270 281 294 305 312 318 322 323 321 315 296 293 287 271 249 224 225 223 216 214 209 212 211 208 198 200 196 191 178 176 172 164 172 165 157 157 166 166 166 168
248 252 258 263 270 284 295 304 311 315 316 317 308 298 283 287 276 255 226 225 227 222 218 218 215 209 204 199 200 199 194 181 177 178 178 179 171 152 139 137 151 165 163
250 246 249 256 264 278 287 295 303 307 305 302 294 292 279 279 278 262 237 223 227 227 227 227 221 208 200 197 199 192 190 189 184 184 187 187 179 165 149 136 131 128 123
254 247 248 250 261 272 280 287 291 295 294 285 283 281 272 269 266 266 246 225 224 224 231 225 220 205 196 196 192 189 196 195 193 190 190 184 177 172 165 151 141 135 121
263 257 255 255 260 270 277 282 284 287 283 277 276 275 275 261 250 267 253 229 214 212 216 209 187 179 178 185 187 195 197 197 195 194 189 182 181 179 174 163 158 153 144
279 269 263 262 267 270 275 284 283 284 284 272 270 268 268 264 259 260 259 240 217 208 194 181 182 182 181 182 185 193 197 197 197 192 190 188 184 183 176 169 167 162 153
274 274 271 267 266 268 270 272 284 291 285 279 275 274 264 260 253 249 251 239 218 200 196 186 187 188 187 185 186 190 193 198 196 193 191 190 188 184 181 174 168 164 160
276 272 266 261 262 263 263 263 268 275 287 289 286 281 274 261 248 246 241 234 216 197 195 190 193 192 189 187 186 190 193 195 194 194 194 192 189 187 182 181 179 174 173
281 274 268 265 262 261 262 261 260 261 263 272 285 283 274 258 248 239 234 219 214 201 194 192 197 195 193 192 192 194 198 196 194 193 194 193 191 191 188 187 187 181 177
277 273 268 261 259 257 255 251 251 250 254 258 262 262 266 254 236 228 219 215 213 205 193 195 198 198 196 198 196 196 198 197 196 195 195 195 193 194 192 187 187 181 182
274 271 266 262 257 253 250 245 247 247 249 253 255 257 253 242 233 222 213 209 207 200 193 198 199 199 197 195 194 198 201 199 199 197 197 196 195 192 194 192 192 189 181
272 264 259 255 254 250 246 247 246 245 248 250 256 255 250 244 231 223 212 203 200 198 194 201 200 202 202 203 204 202 201 200 199 198 197 196 195 191 191 191 191 189 183
267 258 254 251 248 249 247 246 245 243 246 247 250 251 248 237 228 219 204 196 193 192 197 203 200 201 206 210 209 207 203 202 200 198 196 195 193 190 191 191 191 188 185
254 251 248 246 244 242 242 244 245 246 249 251 250 249 249 236 223 207 197 191 189 189 195 200 201 203 209 210 209 206 205 203 200 199 200 195 191 191 197 194 195 195 187
267 257 251 249 248 247 246 246 246 243 240 237 230 223 217 207 194 185 185 180 178 180 188 195 199 207 210 207 203 200 196 193 193 198 197 198 191 199 200 197 197 194 187
285 238 226 219 210 210 208 201 196 191 182 180 179 176 176 174 170 168 168 172 174 176 180 188 195 198 196 195 190 190 194 190 187 192 193 191 197 199 197 196 195 191 187